EW7157 Weather Reports


time (UTC)temp
C
wind
direction
speed
KPH
gust
KPH
rain 1hr
cm
rain 24hr
cm
rain mn
cm
humidity
%
barometer
mb
20260506072809 18 292 0.0 1.6 0.00 0.00 0.00 72 1032.1
20260506061811 18 307 0.0 4.8 0.00 0.00 0.00 70 1032.4
20260506060809 18 22 0.0 3.2 0.00 0.00 0.00 69 1032.4
20260506050711 18 270 0.0 0.0 0.00 0.00 0.00 64 1032.8
20260506044710 18 275 0.0 3.2 0.00 0.00 0.00 63 1032.9
20260506043710 19 360 0.0 1.6 0.00 0.00 0.00 62 1032.9
20260506043610 19 271 0.0 3.2 0.00 0.00 0.00 63 1032.9
20260506042710 19 32 0.0 3.2 0.00 0.00 0.00 62 1032.8
20260506041809 19 360 0.0 0.0 0.00 0.00 0.00 62 1032.8
20260506035815 19 315 0.0 3.2 0.00 0.00 0.00 59 1032.7
20260506034814 19 303 1.6 4.8 0.00 0.00 0.00 59 1032.7
20260506033815 20 360 0.0 0.0 0.00 0.00 0.00 58 1032.7
20260506032913 20 319 0.0 6.4 0.00 0.00 0.00 58 1032.8
20260506032813 20 315 0.0 4.8 0.00 0.00 0.00 58 1032.7
20260506031815 20 360 0.0 0.0 0.00 0.00 0.00 58 1032.5
20260506030815 20 360 1.6 6.4 0.00 0.00 0.00 58 1032.7
20260506030714 20 338 0.0 3.2 0.00 0.00 0.00 57 1032.6
20260506025715 20 341 0.0 3.2 0.00 0.00 0.00 57 1032.8
20260506024716 20 360 0.0 1.6 0.00 0.00 0.00 57 1032.7
20260506024615 20 341 0.0 3.2 0.00 0.00 0.00 57 1032.8
20260506023614 20 315 0.0 0.0 0.00 0.00 0.00 57 1032.9
20260506015517 21 270 0.0 0.0 0.00 0.00 0.00 51 1032.7
20260506014613 21 360 0.0 0.0 0.00 0.00 0.00 49 1032.5
20260506013615 21 300 0.0 4.8 0.00 0.00 0.00 48 1032.4
20260506011614 22 337 0.0 8.0 0.00 0.00 0.00 45 1032.2
20260506010616 22 360 0.0 1.6 0.00 0.00 0.00 42 1032.1
20260506010514 22 330 0.0 3.2 0.00 0.00 0.00 42 1032.2
20260506005513 23 247 0.0 0.0 0.00 0.00 0.00 41 1032.0
20260506004516 23 324 0.0 0.0 0.00 0.00 0.00 39 1031.9
20260506003614 23 14 0.0 1.6 0.00 0.00 0.00 39 1031.7
20260506003515 23 14 0.0 3.2 0.00 0.00 0.00 39 1031.7
20260506000614 23 2 1.6 4.8 0.00 0.00 0.00 39 1031.4
20260505235613 23 337 0.0 0.0 0.00 0.00 0.00 40 1031.3
20260505234614 24 350 1.6 6.4 0.00 0.00 0.00 40 1031.2
20260505233615 24 7 0.0 4.8 0.00 0.00 0.00 40 1031.2
20260505233514 24 22 1.6 3.2 0.00 0.00 0.00 40 1031.1
20260505230516 25 41 1.6 6.4 0.00 0.00 0.00 38 1031.0
20260505225515 25 337 0.0 0.0 0.00 0.00 0.00 37 1031.0
20260505224515 25 225 0.0 1.6 0.00 0.00 0.00 36 1030.8
20260505224415 25 79 0.0 4.8 0.00 0.00 0.00 35 1030.8
20260505223415 25 218 0.0 4.8 0.00 0.00 0.00 34 1030.8
20260505222514 25 278 1.6 4.8 0.00 0.00 0.00 34 1030.6
20260505221614 25 274 0.0 4.8 0.00 0.00 0.00 34 1030.7
20260505221516 25 142 0.0 1.6 0.00 0.00 0.00 33 1030.7
20260505221415 25 201 1.6 4.8 0.00 0.00 0.00 33 1030.9
20260505221314 25 313 1.6 12.9 0.00 0.00 0.00 33 1030.7
20260505220414 26 189 1.6 4.8 0.00 0.00 0.00 33 1030.7
20260505215415 26 5 0.0 3.2 0.00 0.00 0.00 32 1030.6
20260505214513 26 139 0.0 3.2 0.00 0.00 0.00 32 1030.6
20260505213516 26 246 1.6 8.0 0.00 0.00 0.00 31 1030.7
20260505212613 26 289 1.6 14.5 0.00 0.00 0.00 31 1030.7
20260505210617 26 293 0.0 4.8 0.00 0.00 0.00 30 1030.6
20260505205714 26 315 0.0 0.0 0.00 0.00 0.00 28 1030.5
20260505204813 26 274 0.0 3.2 0.00 0.00 0.00 27 1030.4
20260505202817 27 214 0.0 3.2 0.00 0.00 0.00 25 1030.5
20260505201817 27 191 3.2 8.0 0.00 0.00 0.00 26 1030.5
20260505200913 28 62 4.8 12.9 0.00 0.00 0.00 26 1030.5
20260505200814 28 45 0.0 0.0 0.00 0.00 0.00 27 1030.6
20260505200715 28 58 0.0 1.6 0.00 0.00 0.00 26 1030.5
20260505195714 28 190 0.0 6.4 0.00 0.00 0.00 28 1030.6
20260505194813 28 146 0.0 3.2 0.00 0.00 0.00 27 1030.6
20260505193814 28 297 1.6 11.3 0.00 0.00 0.00 27 1030.7
20260505193715 28 312 0.0 3.2 0.00 0.00 0.00 28 1030.6
20260505193616 28 331 1.6 6.4 0.00 0.00 0.00 27 1030.7
20260505192615 27 322 1.6 3.2 0.00 0.00 0.00 28 1030.6
20260505190616 28 234 0.0 3.2 0.00 0.00 0.00 29 1031.2
20260505185715 28 170 0.0 6.4 0.00 0.00 0.00 30 1031.2
20260505184813 28 35 0.0 1.6 0.00 0.00 0.00 29 1031.4
20260505183814 28 360 0.0 1.6 0.00 0.00 0.00 30 1031.4
20260505181814 29 300 1.6 4.8 0.00 0.00 0.00 33 1031.7
20260505180813 28 90 0.0 0.0 0.00 0.00 0.00 33 1031.8
20260505175815 28 228 3.2 11.3 0.00 0.00 0.00 33 1032.1
20260505174815 28 339 0.0 3.2 0.00 0.00 0.00 35 1032.2
20260505174714 28 33 0.0 1.6 0.00 0.00 0.00 34 1032.2
20260505173715 28 345 0.0 6.4 0.00 0.00 0.00 33 1032.1
20260505170814 28 40 0.0 3.2 0.00 0.00 0.00 36 1032.3
20260505165814 27 113 0.0 0.0 0.00 0.00 0.00 35 1032.3
20260505164814 27 254 0.0 3.2 0.00 0.00 0.00 35 1032.5
20260505163814 27 104 0.0 3.2 0.00 0.00 0.00 35 1032.6
20260505162815 27 319 0.0 1.6 0.00 0.00 0.00 36 1032.6
20260505161013 26 268 1.6 6.4 0.00 0.00 0.00 38 1032.7
20260505153031 26 274 1.6 4.8 0.00 0.00 0.00 35 1033.0
20260505152114 26 244 3.2 6.4 0.00 0.00 0.00 36 1033.1
20260505151114 26 188 0.0 3.2 0.00 0.00 0.00 36 1033.0
20260505151015 26 235 0.0 3.2 0.00 0.00 0.00 36 1033.0
20260505140130 24 180 0.0 1.6 0.00 0.00 0.00 42 1033.5
20260505130215 18 45 0.0 0.0 0.00 0.00 0.00 56 1034.0
20260505124314 17 270 0.0 0.0 0.00 0.00 0.00 61 1033.9
20260505123413 17 45 0.0 4.8 0.00 0.00 0.00 63 1033.9
20260505121414 16 135 0.0 0.0 0.00 0.00 0.00 68 1033.7
20260505120415 15 90 0.0 0.0 0.00 0.00 0.00 73 1033.7
20260505115416 15 90 0.0 0.0 0.00 0.00 0.00 75 1033.7
20260505114416 14 225 0.0 0.0 0.00 0.00 0.00 77 1033.7
20260505113416 13 270 0.0 0.0 0.00 0.00 0.00 79 1033.7
20260505112414 13 360 0.0 0.0 0.00 0.00 0.00 81 1033.5
20260505110513 13 360 0.0 0.0 0.00 0.00 0.00 80 1033.4
20260505101614 12 45 0.0 1.6 0.00 0.00 0.00 80 1033.1
20260505100614 12 45 0.0 0.0 0.00 0.00 0.00 81 1033.0
20260505095713 12 45 0.0 0.0 0.00 0.00 0.00 79 1032.8
20260505094715 12 45 0.0 0.0 0.00 0.00 0.00 79 1032.8
20260505093715 12 45 0.0 0.0 0.00 0.00 0.00 79 1032.7
20260505091615 12 45 0.0 0.0 0.00 0.00 0.00 78 1032.8
20260505091516 12 45 0.0 0.0 0.00 0.00 0.00 78 1032.8
20260505090514 12 135 0.0 0.0 0.00 0.00 0.00 78 1032.6
20260505085613 12 135 0.0 0.0 0.00 0.00 0.00 78 1032.6
20260505084613 13 135 0.0 0.0 0.00 0.00 0.00 77 1032.7
20260505083614 13 135 0.0 0.0 0.00 0.00 0.00 76 1032.8
20260505082616 13 135 0.0 0.0 0.00 0.00 0.00 76 1032.8
20260505081614 13 135 0.0 0.0 0.00 0.00 0.00 75 1032.5
20260505081516 13 135 0.0 0.0 0.00 0.00 0.00 75 1032.6
20260505075614 13 135 0.0 0.0 0.00 0.00 0.00 74 1032.6